STARLINK-11551, 62840

Orbit data source: Space-Track

STARLINK-11551, 62840 is a payload satellite owned by SpaceX/Seattle (US) in LEO that was launched on Mon, 27 Jan 2025 UTC via an FALCON 9 launch vehicle from the Air Force Eastern Test Range (AFETR). Payload-class satellites include a variety of spacecraft equipped with specific instruments for various scientific and technological missions. These include communications satellites like Starlink; space stations such as the ISS; scientific satellites like the Hubble; Earth observation satellites from companies like Planet Labs, Umbra, and HawkEye 360; GPS; miniature CubeSats for education and research; and military/defense satellites.

Loading next visibility...
Identifier
62840, 2025-019M
Orbit
LEO
Last TLE update
7 hours ago
Origin
Manufacturer
SpaceX/Seattle
Mission
Operational Commercial Communications
Bus & Motor
STARLINK V2M, Unknown motor
Mass
730 kg wet, ~700 kg dry
Launch date (UTC)
2025-01-27 (5 months ago)
Launch vehicle
FALCON 9
Launch site
Air Force Eastern Test Range (AFETR)
Object type
Payload
Rocket body
Debris
Shape & HBR
Box + 2 Pan, 29 m
Radar Cross Section
36.964 m², Large (>1 m²)

Expand to show TLE details & history

TLE from 7 hours ago
0 STARLINK-11551
1 62840U 25019M   25183.56718123  .00265312  00000-0  20106-2 0  9999
2 62840  42.9988  13.5762 0001590 249.1380 110.9317 15.70783246 24548
Epoch: 2025-07-02T13:36Z
TLE epoch observation values (Epoch: 2025-07-02T13:36:44.458Z)
Latitude
-0.00004°
Longitude
-111.45551°
Altitude
356.811 km
Speed
7.697 km/s
True Right ascension
00h 54m 18s
True Declination
0° 00' 00"
Sunlit
Object was in daylight at epoch
Visualization orbit readout
Latitude
-15.24967°
Longitude
83.69648°
Altitude
358.504 km
Speed
7.695 km/s
Apparent Right ascension
16h 31m 17s
Apparent Declination
-37° 02' 32"
Sunlit
Object is in full shadow
Visualization observer readout
Local Sidereal Time
08:18:30
Azimuth
105.212° ESE
Elevation
-46.195°
Doppler factor
1
Orbital elements
Apogee altitude
359.71 km
Perigee altitude
357.568 km
Semi-major axis
6,736.776 km
Eccentricity
0.00016
Inclination
42.9988°
RAAN
13.5762°
Arg. of periapsis
249.138°
True anomaly
Unknown
Mean anomaly
110.9317°
Eccentric anomaly
Unknown
Mean motion
3.92523 °/min
Orbital period
91.71 mins
BSTAR
0.0020106
Loading maneuver chart data...
Loading SW <> Apogee altitude chart data...
Loading historical data...
Loading historical data...
Loading historical data...
Loading historical data...
Loading historical data...
Loading historical data...
Loading historical data...

STARLINK-11551 Visibility forecast

Observer location: undefined°, undefined°

Span
Click to sort rows by Start time (UTC) header in descending order
Start Az.
Max El. time (UTC)
Max El. Az.
Max El.
End time (UTC)
End Az.
5 mins2025-07-02 21:42:27.169Z274.688° WNW2025-07-02 21:45:27.169Z187.752° SSW28.509°2025-07-02 21:47:27.169Z142.622° SSE
4 mins2025-07-03 17:22:27.169Z273.801° WNW2025-07-03 17:23:27.169Z308.712° NW39.847°2025-07-03 17:26:27.169Z68.409° E
4 mins2025-07-03 18:58:27.169Z300.122° NW2025-07-03 19:00:27.169Z29.731° NE33.423°2025-07-03 19:02:27.169Z76.105° E
|